Location: *
(57.8420°S, 159.8600°W)
Time: 04:03:16
(UTC+00:00)

Cosmos 2263 - Pass Details

Date: 18 May 2021
Orbit: 830 x 866 km, 70.9° (Epoch: 20 June)

Event Time Altitude Azimuth Distance (km) Brightness Sun altitude
Rises 05:14:50 0° 218° (SW) 3,419 7.9 -21.6°
Reaches altitude 10° 05:17:17 10° 216° (SW) 2,483 7.1 -22.0°
Maximum altitude 05:23:00 76° 130° (SE) 880 4.1 -22.7°
Enters shadow 05:24:47 46° 54° (NE) 1,139 4.5 -23.0°
